2016-10-05 00:06:50 r, 15.30m,0000000068Hz,0000006859c,0000000.015s, 031.5C,00002195
2016-10-05 00:16:50 r, 15.35m,0000000062Hz,0000007155c,0000000.016s, 031.2C,00002195
2016-10-05 00:26:50 r, 15.50m,0000000056Hz,0000008295c,0000000.018s, 031.2C,00002195
2016-10-05 00:36:50 r, 15.47m,0000000058Hz,0000008029c,0000000.017s, 030.6C,00002195
2016-10-05 00:46:50 r, 15.53m,0000000054Hz,0000008531c,0000000.019s, 030.2C,00002195
2016-10-05 00:56:50 r, 16.13m,0000000032Hz,0000014713c,0000000.032s, 029.9C,00002195
2016-10-05 01:06:50 r, 16.17m,0000000031Hz,0000015293c,0000000.033s, 029.6C,00002195
2016-10-05 01:16:50 r, 16.09m,0000000033Hz,0000014186c,0000000.031s, 029.6C,00002195
2016-10-05 01:26:50 r, 16.35m,0000000025Hz,0000018124c,0000000.039s, 029.6C,00002195
2016-10-05 01:36:50 r, 16.24m,0000000029Hz,0000016297c,0000000.035s, 029.6C,00002195
2016-10-05 01:46:50 r, 16.76m,0000000018Hz,0000026293c,0000000.057s, 029.6C,00002195
2016-10-05 01:56:50 r, 16.86m,0000000016Hz,0000028983c,0000000.063s, 029.6C,00002195
2016-10-05 02:06:50 r, 16.62m,0000000019Hz,0000023221c,0000000.050s, 029.9C,00002195
2016-10-05 02:16:52 r, 16.47m,0000000023Hz,0000020219c,0000000.044s, 029.9C,00002195
2016-10-05 02:26:50 r, 16.57m,0000000021Hz,0000022176c,0000000.048s, 029.9C,00002195
2016-10-05 02:36:50 r, 16.19m,0000000029Hz,0000015671c,0000000.034s, 029.9C,00002195
2016-10-05 02:46:50 r, 16.18m,0000000030Hz,0000015392c,0000000.033s, 029.9C,00002195
2016-10-05 02:56:51 r, 16.42m,0000000024Hz,0000019240c,0000000.042s, 029.6C,00002195
2016-10-05 03:06:50 r, 16.08m,0000000032Hz,0000014062c,0000000.031s, 029.9C,00002195
2016-10-05 03:16:50 r, 16.30m,0000000026Hz,0000017389c,0000000.038s, 029.9C,00002195
2016-10-05 03:26:50 r, 16.18m,0000000030Hz,0000015415c,0000000.033s, 029.9C,00002195
2016-10-05 03:36:50 r, 16.32m,0000000027Hz,0000017597c,0000000.038s, 029.9C,00002195
2016-10-05 03:46:50 r, 16.43m,0000000023Hz,0000019581c,0000000.042s, 029.9C,00002195
2016-10-05 03:56:50 r, 16.45m,0000000023Hz,0000019967c,0000000.043s, 029.9C,00002195
2016-10-05 04:06:50 r, 16.55m,0000000021Hz,0000021672c,0000000.047s, 029.9C,00002195
2016-10-05 04:16:50 r, 16.23m,0000000029Hz,0000016132c,0000000.035s, 029.9C,00002195
2016-10-05 04:26:50 r, 15.97m,0000000036Hz,0000012761c,0000000.028s, 029.9C,00002195
2016-10-05 04:36:50 r, 16.04m,0000000034Hz,0000013521c,0000000.029s, 029.9C,00002195
2016-10-05 04:46:50 r, 15.95m,0000000037Hz,0000012493c,0000000.027s, 029.6C,00002195
2016-10-05 04:56:50 r, 15.86m,0000000040Hz,0000011506c,0000000.025s, 029.6C,00002195
2016-10-05 05:06:52 r, 16.09m,0000000033Hz,0000014228c,0000000.031s, 029.6C,00002195
2016-10-05 05:16:50 r, 15.93m,0000000038Hz,0000012267c,0000000.027s, 029.3C,00002195
2016-10-05 05:26:50 r, 16.04m,0000000035Hz,0000013513c,0000000.029s, 029.3C,00002195
2016-10-05 05:36:50 r, 16.10m,0000000032Hz,0000014290c,0000000.031s, 029.3C,00002195
2016-10-05 05:46:50 r, 15.99m,0000000035Hz,0000012937c,0000000.028s, 029.0C,00002195
2016-10-05 05:56:50 r, 16.27m,0000000028Hz,0000016827c,0000000.037s, 029.0C,00002195
2016-10-05 06:06:50 r, 15.94m,0000000037Hz,0000012392c,0000000.027s, 028.6C,00002195
2016-10-05 06:16:50 r, 16.22m,0000000029Hz,0000015952c,0000000.035s, 028.6C,00002195
2016-10-05 06:26:50 r, 16.07m,0000000033Hz,0000013928c,0000000.030s, 028.6C,00002195
2016-10-05 06:36:50 r, 16.05m,0000000033Hz,0000013758c,0000000.030s, 028.3C,00002195
2016-10-05 06:46:52 r, 15.79m,0000000042Hz,0000010847c,0000000.024s, 028.3C,00002195
2016-10-05 06:56:50 r, 14.83m,0000000103Hz,0000004472c,0000000.010s, 028.0C,00002195
2016-10-05 07:06:50 r, 13.48m,0000000360Hz,0000000000c,0000000.000s, 028.0C,00002195
2016-10-05 07:16:50 r, 11.14m,0000003121Hz,0000000000c,0000000.000s, 027.7C,00002195
2016-10-05 07:26:50 r, 09.40m,0000015370Hz,0000000000c,0000000.000s, 027.3C,00002195
2016-10-05 07:36:50 r, 08.28m,0000043510Hz,0000000000c,0000000.000s, 027.0C,00002195
2016-10-05 07:46:50 r, 07.33m,0000103964Hz,0000000000c,0000000.000s, 027.0C,00002195
2016-10-05 07:56:50 r, 06.39m,0000245984Hz,0000000000c,0000000.000s, 027.0C,00002195
2016-10-05 08:06:50 r, 00.00m,0000499756Hz,0000000000c,0000000.000s, 026.7C,00002195
2016-10-05 08:16:50 r, 00.00m,0000564124Hz,0000000000c,0000000.000s, 026.7C,00002195
2016-10-05 08:26:50 r, 05.92m,0000379645Hz,0000000000c,0000000.000s, 026.7C,00002195
2016-10-05 08:36:50 r, 00.00m,0000564148Hz,0000000000c,0000000.000s, 026.4C,00002195
2016-10-05 08:46:50 r, 00.00m,0000564209Hz,0000000000c,0000000.000s, 026.4C,00002195
2016-10-05 08:56:50 r, 00.00m,0000564197Hz,0000000000c,0000000.000s, 026.4C,00002195
2016-10-05 09:06:50 r, 00.00m,0000564190Hz,0000000000c,0000000.000s, 026.7C,00002195
2016-10-05 09:16:50 r, 00.00m,0000564224Hz,0000000000c,0000000.000s, 027.0C,00002195
2016-10-05 09:26:50 r, 00.00m,0000564341Hz,0000000000c,0000000.000s, 027.7C,00002195
2016-10-05 09:36:50 r, 00.00m,0000564462Hz,0000000000c,0000000.000s, 028.6C,00002195
2016-10-05 09:46:50 r, 00.00m,0000564577Hz,0000000000c,0000000.000s, 029.9C,00002195
2016-10-05 09:56:51 r, 00.00m,0000564412Hz,0000000000c,0000000.000s, 029.0C,00002195
2016-10-05 10:06:50 r, 00.00m,0000564557Hz,0000000000c,0000000.000s, 029.0C,00002195
2016-10-05 10:16:50 r, 00.00m,0000564532Hz,0000000000c,0000000.000s, 029.3C,00002195
2016-10-05 10:26:50 r, 00.00m,0000564457Hz,0000000000c,0000000.000s, 029.0C,00002195
2016-10-05 10:36:50 r, 00.00m,0000564439Hz,0000000000c,0000000.000s, 028.6C,00002195
2016-10-05 10:46:50 r, 00.00m,0000564288Hz,0000000000c,0000000.000s, 027.7C,00002195
2016-10-05 10:56:50 r, 00.00m,0000564317Hz,0000000000c,0000000.000s, 027.7C,00002195
2016-10-05 11:06:50 r, 00.00m,0000564254Hz,0000000000c,0000000.000s, 027.7C,00002195
2016-10-05 11:16:50 r, 00.00m,0000564264Hz,0000000000c,0000000.000s, 028.0C,00002195
2016-10-05 11:26:51 r, 00.00m,0000564316Hz,0000000000c,0000000.000s, 028.0C,00002195
2016-10-05 11:36:50 r, 00.00m,0000564359Hz,0000000000c,0000000.000s, 028.3C,00002195
2016-10-05 11:46:51 r, 00.00m,0000564364Hz,0000000000c,0000000.000s, 028.3C,00002195
2016-10-05 11:56:51 r, 00.00m,0000564465Hz,0000000000c,0000000.000s, 029.0C,00002195
2016-10-05 12:06:50 r, 00.00m,0000564410Hz,0000000000c,0000000.000s, 028.3C,00002195
2016-10-05 12:16:50 r, 00.00m,0000564638Hz,0000000000c,0000000.000s, 029.3C,00002195
2016-10-05 12:26:50 r, 00.00m,0000564538Hz,0000000000c,0000000.000s, 029.6C,00002195
2016-10-05 12:36:50 r, 00.00m,0000564341Hz,0000000000c,0000000.000s, 028.0C,00002195
2016-10-05 12:46:50 r, 00.00m,0000564317Hz,0000000000c,0000000.000s, 027.7C,00002195
2016-10-05 12:56:52 r, 00.00m,0000564124Hz,0000000000c,0000000.000s, 027.0C,00002195
2016-10-05 13:06:51 r, 00.00m,0000564162Hz,0000000000c,0000000.000s, 027.0C,00002195
2016-10-05 13:16:51 r, 00.00m,0000564273Hz,0000000000c,0000000.000s, 027.0C,00002195
2016-10-05 13:26:50 r, 00.00m,0000564231Hz,0000000000c,0000000.000s, 026.7C,00002195
2016-10-05 13:36:51 r, 00.00m,0000564203Hz,0000000000c,0000000.000s, 026.7C,00002195
2016-10-05 13:46:51 r, 00.00m,0000564106Hz,0000000000c,0000000.000s, 026.4C,00002195
2016-10-05 13:56:51 r, 00.00m,0000564260Hz,0000000000c,0000000.000s, 026.4C,00002195
2016-10-05 14:06:52 r, 00.00m,0000564251Hz,0000000000c,0000000.000s, 027.0C,00002195
2016-10-05 14:16:50 r, 00.00m,0000564262Hz,0000000000c,0000000.000s, 027.3C,00002195
2016-10-05 14:26:50 r, 00.00m,0000564435Hz,0000000000c,0000000.000s, 027.7C,00002195
2016-10-05 14:36:50 r, 00.00m,0000564361Hz,0000000000c,0000000.000s, 028.0C,00002195
2016-10-05 14:46:50 r, 00.00m,0000564385Hz,0000000000c,0000000.000s, 027.3C,00002195
2016-10-05 14:56:51 r, 00.00m,0000564335Hz,0000000000c,0000000.000s, 027.3C,00002195
2016-10-05 15:06:50 r, 00.00m,0000564310Hz,0000000000c,0000000.000s, 027.3C,00002195
2016-10-05 15:16:50 r, 00.00m,0000564245Hz,0000000000c,0000000.000s, 027.3C,00002195
2016-10-05 15:26:51 r, 00.00m,0000564185Hz,0000000000c,0000000.000s, 027.0C,00002195
2016-10-05 15:36:51 r, 00.00m,0000564073Hz,0000000000c,0000000.000s, 026.7C,00002195
2016-10-05 15:46:50 r, 00.00m,0000564039Hz,0000000000c,0000000.000s, 026.4C,00002195
2016-10-05 15:56:50 r, 00.00m,0000564102Hz,0000000000c,0000000.000s, 026.4C,00002195
2016-10-05 16:06:52 r, 00.00m,0000564238Hz,0000000000c,0000000.000s, 027.0C,00002195
2016-10-05 16:16:51 r, 00.00m,0000564117Hz,0000000000c,0000000.000s, 026.7C,00002195
2016-10-05 16:26:50 r, 00.00m,0000564197Hz,0000000000c,0000000.000s, 027.3C,00002195
2016-10-05 16:36:51 r, 00.00m,0000564292Hz,0000000000c,0000000.000s, 027.7C,00002195
2016-10-05 16:46:50 r, 00.00m,0000564166Hz,0000000000c,0000000.000s, 027.3C,00002195
2016-10-05 16:56:51 r, 00.00m,0000564076Hz,0000000000c,0000000.000s, 026.4C,00002195
2016-10-05 17:06:50 r, 00.00m,0000564088Hz,0000000000c,0000000.000s, 026.1C,00002195
2016-10-05 17:16:50 r, 00.00m,0000564050Hz,0000000000c,0000000.000s, 026.1C,00002195
2016-10-05 17:26:50 r, 00.00m,0000564039Hz,0000000000c,0000000.000s, 026.1C,00002195
2016-10-05 17:36:51 r, 00.00m,0000564081Hz,0000000000c,0000000.000s, 025.7C,00002195
2016-10-05 17:46:50 r, 00.00m,0000563989Hz,0000000000c,0000000.000s, 025.7C,00002195
2016-10-05 17:56:51 r, 00.00m,0000563991Hz,0000000000c,0000000.000s, 025.4C,00002195
2016-10-05 18:06:50 r, 00.00m,0000563892Hz,0000000000c,0000000.000s, 025.1C,00002195
2016-10-05 18:16:50 r, 05.93m,0000378748Hz,0000000000c,0000000.000s, 025.1C,00002195
2016-10-05 18:26:50 r, 05.94m,0000372977Hz,0000000000c,0000000.000s, 024.8C,00002195
2016-10-05 18:36:51 r, 06.86m,0000161738Hz,0000000000c,0000000.000s, 024.4C,00002195
2016-10-05 18:46:50 r, 07.30m,0000106689Hz,0000000000c,0000000.000s, 024.4C,00002195
2016-10-05 18:56:53 r, 08.50m,0000035574Hz,0000000000c,0000000.000s, 024.1C,00002195
2016-10-05 19:06:50 r, 09.63m,0000012491Hz,0000000000c,0000000.000s, 024.1C,00002195
2016-10-05 19:16:50 r, 11.72m,0000001824Hz,0000000000c,0000000.000s, 024.1C,00002195
2016-10-05 19:26:51 r, 13.44m,0000000372Hz,0000000000c,0000000.000s, 023.8C,00002195
2016-10-05 19:36:50 r, 14.68m,0000000119Hz,0000003892c,0000000.008s, 023.5C,00002195
2016-10-05 19:46:50 r, 15.16m,0000000077Hz,0000006033c,0000000.013s, 023.5C,00002195
2016-10-05 19:56:52 r, 15.28m,0000000068Hz,0000006760c,0000000.015s, 023.5C,00002195
2016-10-05 20:06:51 r, 15.14m,0000000078Hz,0000005946c,0000000.013s, 023.2C,00002195
2016-10-05 20:16:50 r, 15.32m,0000000066Hz,0000007026c,0000000.015s, 023.2C,00002195
2016-10-05 20:26:51 r, 15.11m,0000000081Hz,0000005748c,0000000.012s, 022.8C,00002195
2016-10-05 20:36:50 r, 15.14m,0000000078Hz,0000005901c,0000000.013s, 022.8C,00002195
2016-10-05 20:46:50 r, 15.26m,0000000070Hz,0000006630c,0000000.014s, 022.5C,00002195
2016-10-05 20:56:52 r, 15.20m,0000000073Hz,0000006299c,0000000.014s, 022.5C,00002195
2016-10-05 21:06:51 r, 15.21m,0000000073Hz,0000006319c,0000000.014s, 022.8C,00002195
2016-10-05 21:16:50 r, 15.20m,0000000074Hz,0000006291c,0000000.014s, 022.8C,00002195
2016-10-05 21:26:51 r, 15.22m,0000000072Hz,0000006384c,0000000.014s, 022.8C,00002195
2016-10-05 21:36:50 r, 14.97m,0000000089Hz,0000005057c,0000000.011s, 023.2C,00002195
2016-10-05 21:46:50 r, 15.23m,0000000072Hz,0000006407c,0000000.014s, 023.2C,00002195
2016-10-05 21:56:50 r, 15.37m,0000000063Hz,0000007345c,0000000.016s, 023.2C,00002195
2016-10-05 22:06:50 r, 15.41m,0000000061Hz,0000007613c,0000000.017s, 023.2C,00002195
2016-10-05 22:16:50 r, 15.35m,0000000065Hz,0000007183c,0000000.016s, 023.2C,00002195
2016-10-05 22:26:51 r, 15.64m,0000000050Hz,0000009401c,0000000.020s, 023.2C,00002195
2016-10-05 22:36:50 r, 15.64m,0000000050Hz,0000009390c,0000000.020s, 023.2C,00002195
2016-10-05 22:46:50 r, 16.23m,0000000029Hz,0000016168c,0000000.035s, 023.5C,00002195
2016-10-05 22:56:50 r, 15.78m,0000000042Hz,0000010714c,0000000.023s, 023.5C,00002195
2016-10-05 23:06:50 r, 15.46m,0000000058Hz,0000007978c,0000000.017s, 023.2C,00002195
2016-10-05 23:16:50 r, 15.70m,0000000045Hz,0000009980c,0000000.022s, 023.2C,00002195
2016-10-05 23:26:50 r, 16.84m,0000000016Hz,0000028264c,0000000.061s, 023.2C,00002195
2016-10-05 23:36:50 r, 16.61m,0000000020Hz,0000022975c,0000000.050s, 022.8C,00002195
2016-10-05 23:46:50 r, 16.10m,0000000032Hz,0000014330c,0000000.031s, 022.8C,00002195
2016-10-05 23:56:53 r, 15.98m,0000000036Hz,0000012912c,0000000.028s, 022.8C,00002195
